Time,TemperatureF,DewpointF,PressureIn,WindDirection,WindDirectionDegrees,WindSpeedMPH,WindSpeedGustMPH,Humidity,HourlyPrecipIn,Conditions,Clouds,dailyrainin,SolarRadiationWatts/m^2,SoftwareType,DateUTC
2013-02-19 00:06:00,25.1,17.0,30.13,NNW,345,0.0,0.0,71,0.00,,,0.00,0,weatherlink.com 1.10,2013-02-19 06:06:00,
2013-02-19 00:21:00,24.5,17.0,30.14,NNW,345,0.0,0.0,72,0.00,,,0.00,0,weatherlink.com 1.10,2013-02-19 06:21:00,
2013-02-19 00:36:00,24.0,16.0,30.14,NNW,345,0.0,0.0,72,0.00,,,0.00,0,weatherlink.com 1.10,2013-02-19 06:36:00,
2013-02-19 00:51:00,23.5,16.0,30.14,NNW,345,0.0,0.0,74,0.00,,,0.00,0,weatherlink.com 1.10,2013-02-19 06:51:00,
2013-02-19 01:06:00,23.0,16.0,30.15,NNW,345,0.0,0.0,75,0.00,,,0.00,0,weatherlink.com 1.10,2013-02-19 07:06:00,
2013-02-19 01:21:00,23.0,16.0,30.16,NNW,345,0.0,0.0,75,0.00,,,0.00,0,weatherlink.com 1.10,2013-02-19 07:21:00,
2013-02-19 01:36:00,22.2,16.0,30.15,NNW,345,0.0,0.0,76,0.00,,,0.00,0,weatherlink.com 1.10,2013-02-19 07:36:00,
2013-02-19 01:52:00,21.8,16.0,30.16,NNW,345,0.0,0.0,77,0.00,,,0.00,0,weatherlink.com 1.10,2013-02-19 07:52:00,
2013-02-19 02:07:00,21.7,16.0,30.16,NNW,345,0.0,0.0,77,0.00,,,0.00,0,weatherlink.com 1.10,2013-02-19 08:07:00,
2013-02-19 02:21:00,21.2,15.0,30.16,NNW,345,0.0,0.0,78,0.00,,,0.00,0,weatherlink.com 1.10,2013-02-19 08:21:00,
2013-02-19 02:37:00,21.1,16.0,30.17,NNW,345,0.0,0.0,79,0.00,,,0.00,0,weatherlink.com 1.10,2013-02-19 08:37:00,
2013-02-19 02:52:00,20.7,15.0,30.18,NNW,345,0.0,0.0,79,0.00,,,0.00,0,weatherlink.com 1.10,2013-02-19 08:52:00,
2013-02-19 03:07:00,20.6,15.0,30.18,NNW,345,0.0,0.0,79,0.00,,,0.00,0,weatherlink.com 1.10,2013-02-19 09:07:00,
2013-02-19 03:37:00,19.5,14.0,30.19,NNW,345,0.0,0.0,80,0.00,,,0.00,0,weatherlink.com 1.10,2013-02-19 09:37:00,
2013-02-19 03:52:00,18.8,14.0,30.19,NNW,345,0.0,0.0,80,0.00,,,0.00,0,weatherlink.com 1.10,2013-02-19 09:52:00,
2013-02-19 04:07:00,18.6,14.0,30.20,NNW,345,0.0,0.0,81,0.00,,,0.00,0,weatherlink.com 1.10,2013-02-19 10:07:00,
2013-02-19 04:22:00,18.4,14.0,30.20,NNW,345,0.0,0.0,81,0.00,,,0.00,0,weatherlink.com 1.10,2013-02-19 10:22:00,
2013-02-19 04:37:00,18.1,14.0,30.21,NNW,345,0.0,0.0,82,0.00,,,0.00,0,weatherlink.com 1.10,2013-02-19 10:37:00,
2013-02-19 04:52:00,18.1,14.0,30.21,NNW,345,0.0,0.0,83,0.00,,,0.00,0,weatherlink.com 1.10,2013-02-19 10:52:00,
2013-02-19 05:07:00,18.0,14.0,30.23,NNW,345,0.0,1.0,83,0.00,,,0.00,0,weatherlink.com 1.10,2013-02-19 11:07:00,
2013-02-19 05:22:00,18.2,14.0,30.23,NNW,345,0.0,1.0,83,0.00,,,0.00,0,weatherlink.com 1.10,2013-02-19 11:22:00,
2013-02-19 05:37:00,18.9,15.0,30.23,NNW,345,0.0,0.0,84,0.00,,,0.00,0,weatherlink.com 1.10,2013-02-19 11:37:00,
2013-02-19 05:52:00,18.8,15.0,30.24,NNW,345,0.0,0.0,84,0.00,,,0.00,0,weatherlink.com 1.10,2013-02-19 11:52:00,
2013-02-19 06:07:00,18.9,15.0,30.24,NNW,345,0.0,0.0,84,0.00,,,0.00,0,weatherlink.com 1.10,2013-02-19 12:07:00,
2013-02-19 06:22:00,19.0,15.0,30.24,NNW,345,0.0,0.0,84,0.00,,,0.00,0,weatherlink.com 1.10,2013-02-19 12:22:00,
2013-02-19 06:37:00,18.3,14.0,30.24,NNW,345,0.0,0.0,84,0.00,,,0.00,0,weatherlink.com 1.10,2013-02-19 12:37:00,
2013-02-19 06:52:00,17.7,14.0,30.26,NNW,345,0.0,0.0,84,0.00,,,0.00,0,weatherlink.com 1.10,2013-02-19 12:52:00,
2013-02-19 07:07:00,17.3,13.0,30.26,NNW,345,0.0,0.0,84,0.00,,,0.00,0,weatherlink.com 1.10,2013-02-19 13:07:00,
2013-02-19 07:22:00,17.4,13.0,30.27,NNW,345,0.0,0.0,84,0.00,,,0.00,9,weatherlink.com 1.10,2013-02-19 13:22:00,
2013-02-19 07:37:00,17.8,14.0,30.28,NNW,345,0.0,0.0,85,0.00,,,0.00,16,weatherlink.com 1.10,2013-02-19 13:37:00,
2013-02-19 07:53:00,18.1,14.0,30.29,NNW,345,0.0,2.0,85,0.00,,,0.00,21,weatherlink.com 1.10,2013-02-19 13:53:00,
2013-02-19 08:08:00,19.3,16.0,30.30,NNW,345,0.0,3.0,86,0.00,,,0.00,25,weatherlink.com 1.10,2013-02-19 14:08:00,
2013-02-19 08:22:00,22.2,19.0,30.31,NNW,345,0.0,4.0,87,0.00,,,0.00,26,weatherlink.com 1.10,2013-02-19 14:22:00,
2013-02-19 08:37:00,25.0,21.0,30.32,NNW,346,1.0,6.0,86,0.00,,,0.00,30,weatherlink.com 1.10,2013-02-19 14:37:00,
2013-02-19 08:52:00,27.2,22.0,30.32,NNW,343,9.0,11.0,81,0.00,,,0.00,32,weatherlink.com 1.10,2013-02-19 14:52:00,
2013-02-19 09:08:00,29.0,22.0,30.34,North,351,2.0,12.0,74,0.00,,,0.00,155,weatherlink.com 1.10,2013-02-19 15:08:00,
2013-02-19 09:23:00,30.4,21.0,30.34,NNE,25,1.0,12.0,69,0.00,,,0.00,209,weatherlink.com 1.10,2013-02-19 15:23:00,
2013-02-19 09:38:00,31.4,21.0,30.35,NNE,13,4.0,12.0,65,0.00,,,0.00,392,weatherlink.com 1.10,2013-02-19 15:38:00,
2013-02-19 09:53:00,32.4,21.0,30.36,North,5,1.0,11.0,62,0.00,,,0.00,431,weatherlink.com 1.10,2013-02-19 15:53:00,
2013-02-19 10:08:00,33.5,21.0,30.36,NNE,13,4.0,10.0,60,0.00,,,0.00,462,weatherlink.com 1.10,2013-02-19 16:08:00,
2013-02-19 10:23:00,34.4,20.0,30.36,NW,314,6.0,10.0,57,0.00,,,0.00,302,weatherlink.com 1.10,2013-02-19 16:23:00,
2013-02-19 10:38:00,35.2,20.0,30.36,North,5,0.0,11.0,54,0.00,,,0.00,269,weatherlink.com 1.10,2013-02-19 16:38:00,
2013-02-19 10:53:00,36.6,20.0,30.36,North,5,0.0,10.0,52,0.00,,,0.00,485,weatherlink.com 1.10,2013-02-19 16:53:00,
2013-02-19 11:08:00,37.2,19.0,30.37,NNW,342,6.0,11.0,49,0.00,,,0.00,573,weatherlink.com 1.10,2013-02-19 17:08:00,
2013-02-19 11:23:00,38.2,20.0,30.37,NNW,342,4.0,11.0,48,0.00,,,0.00,592,weatherlink.com 1.10,2013-02-19 17:23:00,
2013-02-19 11:38:00,39.3,20.0,30.37,North,355,3.0,11.0,46,0.00,,,0.00,610,weatherlink.com 1.10,2013-02-19 17:38:00,
2013-02-19 11:53:00,39.5,19.0,30.36,NW,316,8.0,13.0,44,0.00,,,0.00,621,weatherlink.com 1.10,2013-02-19 17:53:00,
2013-02-19 12:08:00,40.3,19.0,30.36,NW,309,7.0,14.0,43,0.00,,,0.00,629,weatherlink.com 1.10,2013-02-19 18:08:00,
2013-02-19 12:24:00,41.5,19.0,30.36,North,360,0.0,13.0,41,0.00,,,0.00,635,weatherlink.com 1.10,2013-02-19 18:24:00,
2013-02-19 12:38:00,42.2,19.0,30.35,NW,321,1.0,9.0,39,0.00,,,0.00,636,weatherlink.com 1.10,2013-02-19 18:38:00,
2013-02-19 12:54:00,43.1,20.0,30.35,NW,314,3.0,11.0,39,0.00,,,0.00,631,weatherlink.com 1.10,2013-02-19 18:54:00,
2013-02-19 13:08:00,42.4,19.0,30.34,NNW,336,0.0,10.0,40,0.00,,,0.00,629,weatherlink.com 1.10,2013-02-19 19:08:00,
2013-02-19 13:24:00,42.5,20.0,30.33,West,281,7.0,7.0,40,0.00,,,0.00,619,weatherlink.com 1.10,2013-02-19 19:24:00,
2013-02-19 13:38:00,44.0,20.0,30.32,North,5,0.0,5.0,38,0.00,,,0.00,603,weatherlink.com 1.10,2013-02-19 19:38:00,
2013-02-19 14:09:00,45.8,20.0,30.30,North,360,3.0,7.0,36,0.00,,,0.00,571,weatherlink.com 1.10,2013-02-19 20:09:00,
2013-02-19 14:24:00,45.7,19.0,30.28,NNE,22,3.0,5.0,35,0.00,,,0.00,547,weatherlink.com 1.10,2013-02-19 20:24:00,
2013-02-19 14:39:00,45.8,21.0,30.27,North,5,0.0,9.0,37,0.00,,,0.00,432,weatherlink.com 1.10,2013-02-19 20:39:00,
2013-02-19 14:54:00,45.7,20.0,30.27,NNW,329,0.0,6.0,36,0.00,,,0.00,478,weatherlink.com 1.10,2013-02-19 20:54:00,
2013-02-19 15:09:00,46.5,20.0,30.28,NNW,338,0.0,9.0,35,0.00,,,0.00,464,weatherlink.com 1.10,2013-02-19 21:09:00,
2013-02-19 15:24:00,46.2,20.0,30.28,NNW,334,4.0,7.0,35,0.00,,,0.00,371,weatherlink.com 1.10,2013-02-19 21:24:00,
2013-02-19 15:39:00,45.7,20.0,30.27,NNW,337,0.0,5.0,36,0.00,,,0.00,274,weatherlink.com 1.10,2013-02-19 21:39:00,